Volver al catálogo

STARLINK-35907

ActivoComunicacionesVLEO
NORAD 66498·PAYLOAD·🇺🇸 United States

Lanzado Nov 15, 2025 desde Cape Canaveral Space Force Station

Loading…

Próximos Pases (próximas 24 horas)

TLE

ActualizadoSource: CelesTrak SupGP

Época: Sep 15, 2026, 02:55 UTC

1 66498C 25263P   26258.12201389  .00030567  00000+0  11069-2 0  2587
2 66498  43.0029   1.0782 0001647 263.6883 249.1222 15.27568920    13

Sigue STARLINK-35907 en tiempo real con AllMySat

Download on the App Store